Regional Weather Roundup
Issued by NWS

Home | Current Version | Previous Version | Text Only | Print | Product List | Glossary Off
Versions: 1 2 3 4 5 6 7 8 9 10 11 12 13 14 15 16 17 18 19 20 21 22 23 24 25 26 27 28 29 30 31 32 33 34 35 36 37 38 39 40 41 42 43 44 45 46 47 48 49 50

000
ASUS43 KFSD 281610
RWRSD

WEATHER ROUNDUP FOR SOUTH DAKOTA
NATIONAL WEATHER SERVICE SIOUX FALLS SD
1000 AM CST SUN DEC 28 2014

NOTE: "FAIR" INDICATES FEW OR NO CLOUDS BELOW 12,000 FEET WITH NO
SIGNIFICANT WEATHER AND/OR OBSTRUCTIONS TO VISIBILITY.


SDZ001>005-009-010-012>017-281700-
NORTHWEST AND NORTH CENTRAL SOUTH DAKOTA

CITY           SKY/WX    TMP DP  RH WIND       PRES   REMARKS
BUFFALO          N/A     19  14  81 CALM      29.89R
FAITH            N/A     13   8  81 E5        29.99R WCI   5
MOBRIDGE       PTSUNNY   16  12  84 E10       30.07R WCI   4
$$

SDZ012>016-024>037-041>051-057-063-072>074-281700-
SOUTHWEST AND SOUTH CENTRAL SOUTH DAKOTA

CITY           SKY/WX    TMP DP  RH WIND       PRES   REMARKS
RAPID CTY ARPT PTSUNNY   18   8  65 NW6       29.94S WCI  10
PIERRE         CLOUDY     7   5  91 CALM      30.08R
CUSTER         CLOUDY    15   5  64 CALM      29.82R
ELLSWORTH AFB  PTSUNNY   18   8  62 W5        29.93R WCI  11
PHILIP         MOSUNNY    6   2  83 W5        30.03R WCI  -3
PINE RIDGE     MOSUNNY   13   5  70 CALM      29.96R
SPEARFISH      FAIR      19  10  68 MISG      29.90R
WINNER         FAIR       9   1  70 S6        30.06R WCI  -1
$$

SDZ004>011-016>023-039-040-281700-
NORTHEAST SOUTH DAKOTA

CITY           SKY/WX    TMP DP  RH WIND       PRES   REMARKS
ABERDEEN       CLOUDY    14  10  84 NE14      30.18R WCI  -1
WATERTOWN      CLOUDY    13  10  88 N5        30.11R WCI   5
SISSETON         N/A      9   6  88 N16       30.21R WCI  -8
$$

SDZ017-020-022-023-036>040-048>070-281700-
SOUTHEAST SOUTH DAKOTA

CITY           SKY/WX    TMP DP  RH WIND       PRES   REMARKS
SIOUX FALLS    MOSUNNY    2   2 100 CALM      30.14R
HURON          SUNNY      5   3  91 CALM      30.15R
CHAMBERLAIN    MOSUNNY   10   7  88 CALM      30.10R
MITCHELL       SUNNY      7   3  84 N5        30.15R WCI  -2
YANKTON          N/A      7   3  85 NW3       30.15R VSB 3/4
$$

ABBREVIATIONS USED IN REMARKS
   TC - TEMPERATURE IN CELSIUS
  WCI - WIND CHILL INDEX
   HX - HEAT INDEX
  VSB - VISIBILITY



USA.gov is the U.S. government's official web portal to all federal, state and local government web resources and services.